Weather History for Lynchburg, VA

Change the Weather History Date:

Saturday, March 8, 2014

  Actual Average Record
Temperature  
Mean Temperature 48 °F 43 °F  
Max Temperature 70 °F 55 °F 84 °F (2000)
Min Temperature 25 °F 32 °F 11 °F (1960)
Degree Days  
Heating Degree Days 17 22  
Month to date heating degree days 232 182  
Since 1 July heating degree days 3746 3606  
Cooling Degree Days 0 0  
Month to date cooling degree days 0 0  
Year to date cooling degree days 0 0  
Moisture  
Dew Point 30 °F    
Average Humidity 57    
Maximum Humidity 92    
Minimum Humidity 22    
Precipitation  
Precipitation 0.00 in 0.11 in 1.17 in (1998)
Month to date precipitation 1.00 0.86  
Year to date precipitation 8.08 6.93  
Snow  
Snow 0.00 in - - ()
Month to date snowfall 2.4  
Since 1 July snowfall 14.4  
Snow Depth 0.00 in    
Sea Level Pressure  
Sea Level Pressure 29.98 in    
Wind  
Wind Speed 3 mph (WSW)    
Max Wind Speed 15 mph    
Max Gust Speed 28 mph    
Visibility 9 miles    
Events      
T = Trace of Precipitation, MM = Missing Value Source: NWS Daily Summary

Daily Weather History Graph

Daily Weather History Graph

Search for Another Location

Airport:

Trip Planner

Search our weather history database for the weather conditions in past years. The results will help you decide how hot, cold, wet, or windy it might be!

Date:

Astronomy

Mar. 08, 2014 Rise Set
Actual Time 6:38 AM EST 6:17 PM EST
Civil Twilight 6:12 AM EST 6:43 PM EST
Nautical Twilight 5:41 AM EST 7:13 PM EST
Astronomical Twilight 5:11 AM EST 7:44 PM EST
Moon 11:25 AM EST (3/8) 1:06 AM EST (3/8)
Length of Visible Light 12h 31m
Length of Day
11h 39m
First Quarter, 51% of the Moon is Illuminated
Mar 8
First Quarter
Mar 16
Full
Mar 23
Last Quarter
Mar 30
New
Apr 7
First Quarter

Hourly Weather History & Observations

Time (EST) Temp. Windchill Dew Point Humidity Pressure Visibility Wind Dir Wind Speed Gust Speed Precip Events Conditions
12:54 AM 30.0 °F - 27.0 °F 88% 29.97 in 10.0 mi Calm Calm - N/A   Clear
1:54 AM 28.9 °F - 26.1 °F 89% 29.98 in 8.0 mi Calm Calm - N/A   Clear
2:54 AM 27.0 °F - 24.1 °F 89% 29.99 in 7.0 mi Calm Calm - N/A   Clear
3:54 AM 27.0 °F - 23.0 °F 85% 29.99 in 6.0 mi Calm Calm - N/A   Clear
4:54 AM 27.0 °F - 23.0 °F 85% 29.99 in 6.0 mi Calm Calm - N/A   Clear
5:54 AM 26.1 °F - 23.0 °F 88% 30.00 in 6.0 mi Calm Calm - N/A   Clear
6:54 AM 28.0 °F - 25.0 °F 88% 30.02 in 7.0 mi Calm Calm - N/A   Clear
7:54 AM 34.0 °F - 30.9 °F 89% 30.03 in 8.0 mi Calm Calm - N/A   Clear
8:54 AM 41.0 °F - 36.0 °F 82% 30.04 in 10.0 mi Calm Calm - N/A   Clear
9:54 AM 54.0 °F - 37.0 °F 53% 30.03 in 10.0 mi WSW 4.6 mph - N/A   Clear
10:54 AM 59.0 °F - 39.9 °F 49% 30.00 in 10.0 mi Variable 6.9 mph - N/A   Clear
11:54 AM 63.0 °F - 41.0 °F 45% 29.99 in 10.0 mi Variable 6.9 mph - N/A   Clear
12:54 PM 64.9 °F - 39.0 °F 39% 29.97 in 10.0 mi Variable 6.9 mph - N/A   Clear
1:54 PM 68.0 °F - 39.0 °F 35% 29.94 in 10.0 mi WSW 10.4 mph - N/A   Clear
2:54 PM 69.1 °F - 35.1 °F 29% 29.93 in 10.0 mi Variable 6.9 mph - N/A   Clear
3:54 PM 69.1 °F - 30.9 °F 24% 29.92 in 10.0 mi Variable 6.9 mph - N/A   Clear
4:54 PM 69.1 °F - 28.9 °F 22% 29.93 in 10.0 mi Calm Calm - N/A   Clear
5:54 PM 63.0 °F - 32.0 °F 31% 29.94 in 10.0 mi West 3.5 mph - N/A   Clear
6:54 PM 62.1 °F - 25.0 °F 24% 29.97 in 10.0 mi West 4.6 mph - N/A   Clear
7:54 PM 57.9 °F - 26.1 °F 30% 29.98 in 10.0 mi Variable 3.5 mph - N/A   Clear
8:54 PM 54.0 °F - 27.0 °F 35% 29.98 in 10.0 mi Calm Calm - N/A   Clear
9:54 PM 46.0 °F - 28.0 °F 50% 29.97 in 10.0 mi Calm Calm - N/A   Clear
10:54 PM 42.1 °F 40.2 °F 28.0 °F 58% 29.96 in 10.0 mi SW 3.5 mph - N/A   Clear
11:54 PM 43.0 °F - 28.9 °F 58% 29.96 in 10.0 mi Calm Calm - N/A   Clear